When you browse on this site, cookies collect data to enhance your experience and personalize the content and advertising you see.
Visit our Privacy Policy to learn more. By continuing to use the site, you agree to this use of cookies and data.
  • In Lithuania
  • List of Countries
  • For 7 days
  • Water Temperature
  • Satellite Maps
  • Weather Map
  • Weather Widgets
  • user-avatar
    Login

    Hourly Weather Edmonton

    Today, 16 July, Tuesday

    Time Temperature Precipitation Wind Pressure Humidity
    00:00 +14°C° 0 mm 1 mps 701 mmHg 86%
    01:00 +14°C° 0 mm 1 mps 701 mmHg 88%
    02:00 +13°C° 0 mm 1 mps 701 mmHg 88%
    03:00 +13°C° 0 mm 1 mps 701 mmHg 89%
    04:00 +12°C° 0 mm 0 mps 701 mmHg 89%
    05:00 +14°C° 0.1 mm 1 mps 701 mmHg 88%
    06:00 +16°C° 0.1 mm 1 mps 701 mmHg 86%
    07:00 +18°C° 0.1 mm 1 mps 702 mmHg 84%
    08:00 +19°C° 0.8 mm 1 mps 701 mmHg 79%
    09:00 +21°C° 0.8 mm 1 mps 701 mmHg 74%
    10:00 +22°C° 0.8 mm 1 mps 701 mmHg 69%
    11:00 +22°C° 0.7 mm 1 mps 701 mmHg 68%
    12:00 +23°C° 0.7 mm 1 mps 701 mmHg 67%
    13:00 +23°C° 0.7 mm 1 mps 700 mmHg 66%
    14:00 +23°C° 0.2 mm 1 mps 700 mmHg 67%
    15:00 +23°C° 0.2 mm 1 mps 700 mmHg 68%
    16:00 +23°C° 0.2 mm 2 mps 699 mmHg 69%
    17:00 +21°C° 0.1 mm 2 mps 699 mmHg 74%
    18:00 +19°C° 0.1 mm 2 mps 699 mmHg 80%
    19:00 +18°C° 0.1 mm 2 mps 699 mmHg 85%
    20:00 +17°C° 0 mm 2 mps 698 mmHg 87%
    21:00 +16°C° 0 mm 2 mps 698 mmHg 89%
    22:00 +15°C° 0 mm 2 mps 698 mmHg 90%
    23:00 +14°C° 0 mm 2 mps 697 mmHg 91%

    Tomorrow, 17 July, Wednesday

    Time Temperature Precipitation Wind Pressure Humidity
    00:00 +14°C° 0 mm 2 mps 697 mmHg 92%
    01:00 +13°C° 0 mm 2 mps 696 mmHg 93%
    02:00 +13°C° 0 mm 2 mps 696 mmHg 93%
    03:00 +12°C° 0 mm 2 mps 696 mmHg 92%
    04:00 +12°C° 0 mm 2 mps 695 mmHg 92%
    05:00 +12°C° 0 mm 3 mps 695 mmHg 89%
    06:00 +14°C° 0 mm 3 mps 695 mmHg 87%
    07:00 +16°C° 0 mm 3 mps 695 mmHg 84%
    08:00 +18°C° 0 mm 3 mps 695 mmHg 81%
    09:00 +19°C° 0 mm 4 mps 695 mmHg 78%
    10:00 +20°C° 0 mm 4 mps 694 mmHg 75%
    11:00 +21°C° 0 mm 5 mps 694 mmHg 75%
    12:00 +21°C° 0 mm 5 mps 693 mmHg 74%
    13:00 +22°C° 0 mm 5 mps 693 mmHg 74%
    14:00 +22°C° 0.6 mm 5 mps 692 mmHg 77%
    15:00 +21°C° 0.6 mm 5 mps 692 mmHg 79%
    16:00 +21°C° 0.6 mm 5 mps 691 mmHg 81%
    17:00 +20°C° 2 mm 4 mps 691 mmHg 83%
    18:00 +19°C° 2 mm 3 mps 690 mmHg 85%
    19:00 +17°C° 2 mm 2 mps 690 mmHg 87%
    20:00 +17°C° 0.7 mm 2 mps 690 mmHg 89%
    21:00 +16°C° 0.7 mm 2 mps 690 mmHg 91%
    22:00 +15°C° 0.7 mm 2 mps 689 mmHg 93%
    23:00 +15°C° 0.9 mm 2 mps 689 mmHg 94%

    Day after tomorrow, 18 July, Thursday

    Time Temperature Precipitation Wind Pressure Humidity
    00:00 +15°C° 0.9 mm 2 mps 689 mmHg 96%
    01:00 +13°C° 0.9 mm 3 mps 689 mmHg 97%
    02:00 +13°C° 3.4 mm 4 mps 689 mmHg 97%
    03:00 +13°C° 3.4 mm 4 mps 689 mmHg 97%
    04:00 +12°C° 3.4 mm 5 mps 688 mmHg 97%
    05:00 +11°C° 3.8 mm 6 mps 688 mmHg 97%
    06:00 +11°C° 3.8 mm 6 mps 689 mmHg 96%
    07:00 +11°C° 3.8 mm 7 mps 689 mmHg 96%
    08:00 +11°C° 3.2 mm 7 mps 689 mmHg 96%
    09:00 +11°C° 3.2 mm 8 mps 689 mmHg 96%
    10:00 +11°C° 3.2 mm 8 mps 689 mmHg 96%
    11:00 +10°C° 4.6 mm 9 mps 689 mmHg 96%
    12:00 +10°C° 4.6 mm 9 mps 689 mmHg 96%
    13:00 +8°C° 4.6 mm 10 mps 690 mmHg 95%
    14:00 +8°C° 3.2 mm 10 mps 690 mmHg 95%
    15:00 +8°C° 3.2 mm 10 mps 690 mmHg 95%
    16:00 +8°C° 3.2 mm 10 mps 691 mmHg 95%
    17:00 +8°C° 1.7 mm 10 mps 691 mmHg 95%
    18:00 +8°C° 1.7 mm 9 mps 691 mmHg 96%
    19:00 +10°C° 1.7 mm 8 mps 691 mmHg 96%
    20:00 +10°C° 0.8 mm 7 mps 692 mmHg 96%
    21:00 +10°C° 0.8 mm 6 mps 692 mmHg 96%
    22:00 +10°C° 0.8 mm 6 mps 692 mmHg 96%
    23:00 +10°C° 0.4 mm 6 mps 692 mmHg 96%

    19 July, Friday

    Time Temperature Precipitation Wind Pressure Humidity
    00:00 +10°C° 0.4 mm 5 mps 693 mmHg 96%
    01:00 +10°C° 0.4 mm 5 mps 693 mmHg 96%
    02:00 +10°C° 0.1 mm 5 mps 693 mmHg 96%
    03:00 +10°C° 0.1 mm 5 mps 693 mmHg 96%
    04:00 +10°C° 0.1 mm 5 mps 694 mmHg 95%
    05:00 +12°C° 0 mm 5 mps 694 mmHg 94%
    06:00 +13°C° 0 mm 5 mps 695 mmHg 92%
    07:00 +14°C° 0 mm 5 mps 696 mmHg 91%
    08:00 +15°C° 0.4 mm 5 mps 696 mmHg 87%
    09:00 +17°C° 0.4 mm 5 mps 696 mmHg 83%
    10:00 +19°C° 0.4 mm 6 mps 697 mmHg 79%
    11:00 +20°C° 0.8 mm 5 mps 697 mmHg 77%
    12:00 +20°C° 0.8 mm 5 mps 698 mmHg 75%
    13:00 +21°C° 0.8 mm 5 mps 698 mmHg 73%
    14:00 +20°C° 0.6 mm 4 mps 698 mmHg 75%
    15:00 +20°C° 0.6 mm 3 mps 699 mmHg 76%
    16:00 +19°C° 0.6 mm 2 mps 699 mmHg 77%
    17:00 +19°C° 0.1 mm 2 mps 699 mmHg 78%
    18:00 +18°C° 0.1 mm 2 mps 700 mmHg 79%
    19:00 +18°C° 0.1 mm 2 mps 700 mmHg 80%
    20:00 +17°C° 0 mm 3 mps 700 mmHg 82%
    21:00 +16°C° 0 mm 3 mps 701 mmHg 83%
    22:00 +14°C° 0 mm 3 mps 701 mmHg 85%
    23:00 +13°C° 0 mm 3 mps 701 mmHg 87%

    20 July, Saturday

    Time Temperature Precipitation Wind Pressure Humidity
    00:00 +13°C° 0 mm 2 mps 701 mmHg 89%
    01:00 +13°C° 0 mm 2 mps 702 mmHg 91%
    02:00 +13°C° 0 mm 2 mps 702 mmHg 92%
    03:00 +13°C° 0 mm 2 mps 702 mmHg 92%
    04:00 +12°C° 0 mm 2 mps 703 mmHg 92%
    05:00 +14°C° 0 mm 2 mps 703 mmHg 91%
    06:00 +15°C° 0 mm 2 mps 703 mmHg 89%
    07:00 +16°C° 0 mm 2 mps 704 mmHg 87%
    08:00 +18°C° 0.2 mm 2 mps 704 mmHg 82%
    09:00 +19°C° 0.2 mm 2 mps 704 mmHg 77%
    10:00 +21°C° 0.2 mm 2 mps 705 mmHg 72%
    11:00 +23°C° 0.1 mm 1 mps 705 mmHg 67%
    12:00 +24°C° 0.1 mm 1 mps 705 mmHg 62%
    13:00 +24°C° 0.1 mm 1 mps 705 mmHg 57%
    14:00 +24°C° 0 mm 1 mps 705 mmHg 58%
    15:00 +24°C° 0 mm 1 mps 705 mmHg 59%
    16:00 +24°C° 0 mm 1 mps 705 mmHg 59%
    17:00 +23°C° 0 mm 1 mps 705 mmHg 65%
    18:00 +22°C° 0 mm 1 mps 705 mmHg 70%
    19:00 +19°C° 0 mm 2 mps 704 mmHg 75%
    20:00 +18°C° 0 mm 2 mps 704 mmHg 80%
    21:00 +17°C° 0 mm 2 mps 705 mmHg 84%
    22:00 +16°C° 0 mm 3 mps 705 mmHg 89%
    23:00 +15°C° 0 mm 2 mps 704 mmHg 90%

    21 July, Sunday

    Time Temperature Precipitation Wind Pressure Humidity
    00:00 +15°C° 0 mm 2 mps 704 mmHg 91%
    01:00 +14°C° 0 mm 2 mps 704 mmHg 92%
    02:00 +14°C° 0 mm 2 mps 704 mmHg 92%
    03:00 +14°C° 0 mm 2 mps 704 mmHg 92%
    04:00 +13°C° 0 mm 2 mps 704 mmHg 92%
    05:00 +15°C° 0 mm 2 mps 705 mmHg 90%
    06:00 +16°C° 0 mm 3 mps 705 mmHg 87%
    07:00 +18°C° 0 mm 3 mps 705 mmHg 85%
    08:00 +19°C° 0 mm 3 mps 705 mmHg 82%
    09:00 +21°C° 0 mm 4 mps 706 mmHg 79%
    10:00 +22°C° 0 mm 4 mps 706 mmHg 75%
    11:00 +23°C° 0 mm 4 mps 706 mmHg 74%
    12:00 +23°C° 0 mm 4 mps 706 mmHg 72%
    13:00 +25°C° 0 mm 4 mps 706 mmHg 71%
    14:00 +25°C° 0.1 mm 4 mps 705 mmHg 72%
    15:00 +25°C° 0.1 mm 4 mps 705 mmHg 74%
    16:00 +25°C° 0.1 mm 4 mps 705 mmHg 75%
    17:00 +24°C° 0.1 mm 3 mps 705 mmHg 79%
    18:00 +22°C° 0.1 mm 3 mps 705 mmHg 83%
    19:00 +21°C° 0.1 mm 3 mps 705 mmHg 86%
    20:00 +20°C° 0 mm 3 mps 705 mmHg 87%
    21:00 +18°C° 0 mm 3 mps 705 mmHg 88%
    22:00 +17°C° 0 mm 4 mps 705 mmHg 88%
    23:00 +15°C° 0 mm 4 mps 705 mmHg 86%
    Show more